Kejimkujik, Nova Scotia

3:32 AM ADT on October 20, 2017 (GMT -0300)
Kejimkujik

Weather History for CWKG - February, 2013

Change the Weather History Date:

Sunday, February 24, 2013

  Actual Average (CYZX) Record (CYZX)
Temperature  
Mean Temperature 25 °F -  
Max Temperature 32 °F 31 °F 57 °F (2017)
Min Temperature 18 °F 16 °F -5 °F (2015)
Degree Days  
Heating Degree Days 40    
Moisture  
Dew Point 21 °F    
Average Humidity 82    
Maximum Humidity 96    
Minimum Humidity 62    
Precipitation  
Precipitation 0.36 in - - ()
Sea Level Pressure  
Sea Level Pressure 29.92 in    
Wind  
Wind Speed 5 mph ()    
Max Wind Speed 10 mph    
Max Gust Speed 21 mph    
Averages and records for this station are not official NWS values.
T = Trace of Precipitation, MM = Missing Value Source: Averaged Metar Reports

Daily Weather History Graph

Daily Weather History Graph

Search for Another Location

Airport or City:

Trip Planner

Search our weather history database for the weather conditions in past years. The results will help you decide how hot, cold, wet, or windy it might be!

Date:

Astronomy

Feb. 24, 2013 Rise Set
Actual Time 7:06 AM AST 6:02 PM AST
Civil Twilight 6:36 AM AST 6:31 PM AST
Nautical Twilight 6:03 AM AST 7:05 PM AST
Astronomical Twilight 5:29 AM AST 7:39 PM AST
Moon 5:09 PM AST (2/24) 6:02 AM AST (2/24)
Length of Visible Light 11h 54m
Length of Day
10h 56m
Waxing Gibbous, 98% of the Moon is Illuminated
Feb 24
Waxing Gibbous
Feb 25
Full
Mar 4
Last Quarter
Mar 11
New
Mar 19
First Quarter

Hourly Weather History & Observations

Time (AST) Temp. Windchill Dew Point Humidity Pressure Visibility Wind Dir Wind Speed Gust Speed Precip Events Conditions
12:00 AM 20.3 °F 15.4 °F 18.3 °F 92% 30.15 in - SSE 3.5 mph - N/A   Unknown
1:00 AM 18.7 °F 13.5 °F 17.2 °F 94% 30.12 in - ESE 3.5 mph - N/A   Unknown
2:00 AM 19 °F - 17 °F 91% 30.12 in - ESE 3.5 mph - -  
2:00 AM 18.7 °F 13.5 °F 17.4 °F 95% 30.12 in - ESE 3.5 mph - N/A   Unknown
3:00 AM 19.4 °F 14.3 °F 17.8 °F 93% 30.09 in - ESE 3.5 mph - N/A   Unknown
4:00 AM 19.4 °F 12.8 °F 17.8 °F 93% 30.08 in - ESE 4.6 mph - N/A   Unknown
5:00 AM 19.2 °F 11.3 °F 17.6 °F 93% 30.06 in - ESE 5.8 mph - N/A   Unknown
6:00 AM 19.2 °F 11.3 °F 17.8 °F 94% 30.03 in - East 5.8 mph - N/A   Unknown
7:00 AM 18.5 °F 10.4 °F 17.4 °F 96% 30.00 in - ESE 5.8 mph - N/A   Unknown
8:00 AM 21 °F - 19 °F 89% 29.99 in - SE 6.9 mph - -  
8:00 AM 21.2 °F 12.6 °F 19.0 °F 91% 29.99 in - SE 6.9 mph - N/A   Unknown
9:00 AM 24.8 °F 16.9 °F 20.7 °F 84% 29.97 in - ESE 6.9 mph - N/A   Unknown
10:00 AM 27.3 °F 22.0 °F 21.6 °F 79% 29.96 in - SE 4.6 mph - N/A   Unknown
11:00 AM 29.8 °F 21.5 °F 22.6 °F 75% 29.94 in - SE 9.2 mph - N/A   Unknown
12:00 PM 31.5 °F 24.2 °F 23.4 °F 72% 29.91 in - SE 8.1 mph - N/A   Unknown
1:00 PM 31.8 °F 23.3 °F 23.5 °F 71% 29.88 in - ESE 10.4 mph 18.4 mph N/A   Unknown
2:00 PM 32 °F - 24 °F 62% 29.84 in - ESE 10.4 mph - -  
2:00 PM 31.8 °F 23.3 °F 23.9 °F 73% 29.84 in - ESE 10.4 mph 20.7 mph N/A   Unknown
3:00 PM 31.6 °F 24.4 °F 25.0 °F 76% 29.82 in - ESE 8.1 mph 17.3 mph N/A   Unknown
4:00 PM 30.2 °F 21.3 °F 24.6 °F 80% 29.81 in - ESE 10.4 mph 19.6 mph N/A   Unknown
5:00 PM 29.7 °F 20.7 °F 23.7 °F 79% 29.79 in - ESE 10.4 mph 18.4 mph N/A   Unknown
6:00 PM 29.1 °F 21.3 °F 23.4 °F 79% 29.76 in - East 8.1 mph - N/A   Unknown
7:00 PM 28.4 °F 20.4 °F 22.5 °F 78% 29.76 in - East 8.1 mph - N/A   Unknown
8:00 PM 28 °F - 22 °F 69% 29.76 in - East 9.2 mph - -  
8:00 PM 27.9 °F 19.1 °F 21.7 °F 78% 29.76 in - East 9.2 mph - N/A   Unknown
9:00 PM 27.1 °F 18.9 °F 20.7 °F 77% 29.74 in - East 8.1 mph - N/A   Unknown
10:00 PM 26.6 °F 19.1 °F 20.3 °F 77% 29.75 in - East 6.9 mph - N/A   Unknown
11:00 PM 25.7 °F 17.1 °F 18.9 °F 75% 29.76 in - East 8.1 mph 19.6 mph N/A   Unknown